Weather reports worldwide

Advertisment
Wainfleet, United Kingdom (3392): temperature & dewpoint: 17.07.2019 09:00:00 - 23.07.2019 09:00:00 (BST)Wainfleet, United Kingdom (3392): temperature -20cm & temperature -100cm: 17.07.2019 09:00:00 - 23.07.2019 09:00:00 (BST)Wainfleet, United Kingdom (3392): wind speed & gusts: 17.07.2019 09:00:00 - 23.07.2019 09:00:00 (BST)Wainfleet, United Kingdom (3392): wind direction: 17.07.2019 09:00:00 - 23.07.2019 09:00:00 (BST)Wainfleet, United Kingdom (3392): reduced air pressure: 17.07.2019 09:00:00 - 23.07.2019 09:00:00 (BST)Wainfleet, United Kingdom (3392): visibility: 17.07.2019 09:00:00 - 23.07.2019 09:00:00 (BST)Wainfleet, United Kingdom (3392): precipitation: 17.07.2019 09:00:00 - 23.07.2019 09:00:00 (BST)
Date & Time tt [°C] td [°C] tt -20cm [°C] tt -100cm [°C] ff [km/h] ff [kn] fx [km/h] fx [kn] dd ppp [hPa] vv [km] rr [mm]
23.07.2019 09:00:00 20,9 17,4 - - 15 8 - - SSW 1020,3 3,0 -
23.07.2019 08:00:00 20,2 18,2 - - 13 7 - - S 1020,2 25 0,0
23.07.2019 07:00:00 18,1 17,9 - - 9 5 - - SSW 1020,2 18 0,0
23.07.2019 06:00:00 14,3 14,0 - - 11 6 - - SSW 1020,4 9 0,0
23.07.2019 05:00:00 13,8 13,4 - - 9 5 - - SSW 1020,1 13 0,0
23.07.2019 04:00:00 13,1 12,1 - - 8 4 - - SSW 1020,3 13 0,0
23.07.2019 03:00:00 15,1 14,0 - - 8 4 - - WSW 1020,3 17 0,0
23.07.2019 02:00:00 16,8 15,5 - - 9 5 - - W 1020,3 30 0,0
23.07.2019 01:00:00 17,3 15,6 - - 9 5 - - W 1020,4 30 0,0
23.07.2019 00:00:00 19,5 16,6 - - 13 7 - - WSW 1020,4 40 0,0
22.07.2019 23:00:00 18,9 16,9 - - 13 7 - - SW 1020,3 35 0,0
22.07.2019 22:00:00 20,1 17,8 - - 18 10 - - SW 1019,9 35 0,0
22.07.2019 21:00:00 22,1 17,9 - - 22 12 - - SW 1019,3 40 0,0
22.07.2019 20:00:00 24,6 18,3 - - 22 12 - - SW 1019,1 35 0,0
22.07.2019 19:00:00 26,0 18,5 - - 29 16 - - SW 1018,7 40 0,0
22.07.2019 18:00:00 27,2 18,3 - - 24 13 - - WSW 1018,5 45 0,0
22.07.2019 17:00:00 27,4 18,5 - - 28 15 - - SW 1018,6 40 0,0
22.07.2019 16:00:00 26,2 18,4 - - 29 16 - - WSW 1018,7 40 0,0
22.07.2019 15:00:00 26,6 18,6 - - 28 15 - - SW 1018,8 45 0,0
22.07.2019 14:00:00 25,4 17,6 - - 26 14 46 25 WSW 1019,0 45 0,0
22.07.2019 13:00:00 25,5 18,6 - - 31 17 46 25 SW 1019,2 40 0,0
22.07.2019 12:00:00 25,1 18,6 - - 31 17 52 28 WSW 1018,9 40 0,0
22.07.2019 11:00:00 23,1 17,7 - - 31 17 48 26 WSW 1019,0 40 0,0
22.07.2019 10:00:00 22,2 17,6 17,7 16,0 31 17 46 25 WSW 1018,8 40 0,0
22.07.2019 09:00:00 20,0 17,2 - - 34 18 46 25 SW 1018,5 35 0,0
22.07.2019 08:00:00 18,5 16,5 - - 31 17 - - SW 1018,1 30 0,0
22.07.2019 07:00:00 17,3 15,8 - - 28 15 - - SSW 1017,7 27 0,0
22.07.2019 06:00:00 16,6 15,3 - - 29 16 - - SSW 1017,5 26 0,0
22.07.2019 05:00:00 16,0 14,8 - - 31 17 - - SSW 1017,3 24 0,0
22.07.2019 04:00:00 16,1 14,7 - - 28 15 - - SSW 1017,4 28 0,2
22.07.2019 03:00:00 16,3 14,2 - - 29 16 - - SSW 1017,5 28 0,0
22.07.2019 02:00:00 17,2 14,0 - - 28 15 - - SSW 1018,1 45 0,0
22.07.2019 01:00:00 17,8 14,3 - - 28 15 - - SSW 1018,3 45 0,0
22.07.2019 00:00:00 18,2 14,7 - - 26 14 - - SSW 1018,7 45 0,0
21.07.2019 23:00:00 18,2 15,2 - - 21 11 - - SSW 1018,9 45 0,0
21.07.2019 22:00:00 18,2 15,8 - - 15 8 - - S 1018,9 40 0,0
21.07.2019 21:00:00 18,7 15,7 - - 13 7 - - SSW 1018,9 50 0,0
21.07.2019 20:00:00 19,8 15,4 - - 15 8 - - SSW 1018,9 55 0,0
21.07.2019 19:00:00 20,6 14,2 - - 21 11 - - SW 1018,8 45 0,0
21.07.2019 18:00:00 20,8 13,6 - - 22 12 - - SW 1018,9 40 0,0
21.07.2019 17:00:00 21,2 13,8 - - 26 14 - - SW 1019,2 45 0,0
21.07.2019 16:00:00 21,1 14,2 - - 26 14 - - SW 1019,4 45 0,0
21.07.2019 15:00:00 21,9 14,4 - - 29 16 - - SW 1019,4 30 0,0
21.07.2019 14:00:00 21,6 13,8 - - 24 13 - - SW 1019,3 45 0,0
21.07.2019 13:00:00 22,0 14,9 - - 18 10 - - SSW 1019,6 45 0,0
21.07.2019 12:00:00 20,2 14,5 - - 21 11 - - SSW 1019,4 50 0,0
21.07.2019 11:00:00 19,4 14,7 - - 18 10 - - SSW 1019,2 40 0,0
21.07.2019 10:00:00 18,8 14,6 17,5 16,2 13 7 - - SSW 1018,9 18 0,0
21.07.2019 09:00:00 17,4 14,0 - - 11 6 - - WSW 1018,4 35 0,0
21.07.2019 08:00:00 15,2 14,1 - - 9 5 - - W 1017,9 35 0,0
21.07.2019 07:00:00 13,2 12,6 - - 5 3 - - W 1017,5 26 0,0
21.07.2019 06:00:00 12,0 11,6 - - 9 5 - - W 1016,9 19 0,0
21.07.2019 05:00:00 10,5 9,7 - - 8 4 - - WSW 1016,1 16 0,0
21.07.2019 04:00:00 11,1 10,3 - - 9 5 - - WSW 1015,6 29 0,0
21.07.2019 03:00:00 10,1 9,0 - - 8 4 - - W 1015,4 20 0,0
21.07.2019 02:00:00 10,7 9,7 - - 8 4 - - W 1014,8 28 0,0
21.07.2019 01:00:00 11,7 10,3 - - 15 8 - - W 1014,3 35 0,0
21.07.2019 00:00:00 13,0 10,7 - - 15 8 - - W 1013,9 40 0,0
20.07.2019 23:00:00 12,9 10,8 - - 9 5 - - W 1013,1 40 0,0
20.07.2019 22:00:00 14,2 11,0 - - 15 8 - - W 1012,1 40 0,0
20.07.2019 21:00:00 16,4 11,3 - - 22 12 - - W 1010,9 50 0,0
20.07.2019 20:00:00 18,3 12,6 - - 21 11 - - WNW 1009,8 45 0,0
20.07.2019 19:00:00 19,7 13,9 - - 26 14 - - W 1008,5 45 0,0
20.07.2019 18:00:00 20,7 16,7 - - 24 13 - - W 1007,7 40 0,0
20.07.2019 17:00:00 17,7 16,3 - - 21 11 - - WSW 1007,1 35 0,4
20.07.2019 16:00:00 17,3 16,2 - - 21 11 59 32 WSW 1006,4 45 2,4
20.07.2019 15:00:00 20,2 14,7 - - 31 17 46 25 WSW 1005,3 4,4 0,0
20.07.2019 14:00:00 22,4 15,6 - - 35 19 50 27 SW 1004,5 35 0,0
20.07.2019 13:00:00 21,7 15,0 - - 35 19 50 27 SW 1004,2 22 0,0
20.07.2019 12:00:00 21,3 15,3 - - 31 17 46 25 SW 1003,7 35 0,0
20.07.2019 11:00:00 19,5 16,6 - - 26 14 48 26 SSW 1003,7 35 0,0
20.07.2019 10:00:00 20,0 17,2 17,7 16,2 29 16 - - SSW 1003,4 35 0,0
20.07.2019 09:00:00 18,5 16,6 - - 29 16 - - SSW 1003,4 30 0,0
20.07.2019 08:00:00 17,9 16,8 - - 29 16 - - SSW 1003,4 30 0,0
20.07.2019 07:00:00 17,2 16,5 - - 26 14 - - SSW 1003,5 22 0,0
20.07.2019 06:00:00 17,2 16,7 - - 24 13 - - SSW 1004,0 14 0,0
20.07.2019 05:00:00 17,2 16,6 - - 26 14 - - SSW 1004,1 11 0,0
20.07.2019 04:00:00 17,3 16,8 - - 24 13 - - S 1004,6 11 0,4
20.07.2019 03:00:00 17,3 16,9 - - 24 13 - - S 1005,3 7 0,8
20.07.2019 02:00:00 17,5 17,1 - - 21 11 - - S 1005,6 4,3 0,2
20.07.2019 01:00:00 16,8 16,3 - - 9 5 - - SSW 1006,0 15 0,0
20.07.2019 00:00:00 16,5 15,9 - - 13 7 - - SW 1006,4 20 0,6
19.07.2019 23:00:00 17,3 16,7 - - 28 15 - - SW 1006,9 9 0,6
19.07.2019 22:00:00 17,7 17,3 - - 29 16 - - S 1007,0 8 0,8
19.07.2019 21:00:00 17,6 17,1 - - 28 15 - - S 1006,8 5 1,0
19.07.2019 20:00:00 17,9 17,0 - - 26 14 - - S 1007,1 21 0,0
19.07.2019 19:00:00 17,8 16,9 - - 26 14 - - S 1007,3 23 0,8
19.07.2019 18:00:00 17,9 16,4 - - 26 14 - - S 1007,6 20 0,0
19.07.2019 17:00:00 18,2 16,0 - - 29 16 - - S 1008,0 30 0,0
19.07.2019 16:00:00 17,9 16,1 - - 26 14 - - S 1008,5 29 0,0
19.07.2019 15:00:00 16,9 15,5 - - 29 16 - - S 1009,2 27 1,4
19.07.2019 14:00:00 16,0 15,0 - - 22 12 - - S 1009,9 8 0,4
19.07.2019 13:00:00 16,2 14,3 - - 24 13 - - S 1010,3 15 0,6
19.07.2019 12:00:00 17,9 14,1 - - 24 13 - - SSW 1010,6 18 0,0
19.07.2019 11:00:00 16,5 13,7 - - 22 12 - - S 1010,7 18 0,0
19.07.2019 10:00:00 17,2 14,1 18,0 16,2 16 9 - - S 1011,0 20 0,0
19.07.2019 09:00:00 16,4 13,3 - - 15 8 - - S 1011,3 20 0,0
19.07.2019 08:00:00 15,6 12,7 - - 11 6 - - SW 1011,3 18 0,0
19.07.2019 07:00:00 14,1 12,8 - - 11 6 - - SW 1011,3 24 0,0
19.07.2019 06:00:00 11,0 10,5 - - 13 7 - - SW 1011,1 17 0,0
19.07.2019 05:00:00 9,7 8,7 - - 9 5 - - WSW 1011,0 19 0,0
19.07.2019 04:00:00 11,2 10,0 - - 11 6 - - WSW 1011,3 26 0,0
19.07.2019 03:00:00 10,9 9,5 - - 9 5 - - W 1011,2 23 0,0
19.07.2019 02:00:00 11,9 10,2 - - 9 5 - - WSW 1011,2 28 0,0
19.07.2019 01:00:00 11,8 10,4 - - 11 6 - - WSW 1011,2 23 0,0
19.07.2019 00:00:00 12,7 11,6 - - 5 3 - - SW 1010,9 29 0,0
18.07.2019 23:00:00 12,0 10,1 - - 5 3 - - SSW 1010,7 30 0,0
18.07.2019 22:00:00 13,9 11,2 - - 8 4 - - WSW 1010,5 21 0,0
18.07.2019 21:00:00 17,0 11,7 - - 9 5 - - WSW 1010,0 35 0,0
18.07.2019 20:00:00 18,9 11,8 - - 11 6 - - W 1009,8 30 0,0
18.07.2019 19:00:00 19,4 11,9 - - 13 7 - - W 1009,3 30 0,0
18.07.2019 18:00:00 19,6 11,1 - - 18 10 - - WNW 1009,0 30 0,0
18.07.2019 17:00:00 20,3 10,5 - - 21 11 - - WNW 1008,7 30 0,0
18.07.2019 16:00:00 21,1 12,1 - - 24 13 - - W 1008,5 30 0,0
18.07.2019 15:00:00 21,3 12,8 - - 11 6 - - WNW 1008,5 35 0,0
18.07.2019 14:00:00 19,3 14,6 - - 11 6 - - WNW 1008,5 35 0,0
18.07.2019 13:00:00 18,8 13,6 - - 13 7 - - W 1008,3 35 0,0
18.07.2019 12:00:00 18,7 14,2 - - 13 7 - - WNW 1008,2 35 0,0
18.07.2019 11:00:00 18,6 15,0 - - 15 8 - - WNW 1008,0 35 0,0
18.07.2019 10:00:00 17,2 15,0 18,4 16,0 18 10 - - W 1007,8 28 0,0
18.07.2019 09:00:00 16,7 15,4 - - 16 9 - - WSW 1007,8 23 0,0
18.07.2019 08:00:00 16,1 15,1 - - 22 12 - - SW 1007,7 19 0,0
18.07.2019 07:00:00 15,7 15,1 - - 18 10 - - SSW 1007,5 16 0,0
18.07.2019 06:00:00 14,9 14,3 - - 16 9 - - SW 1007,6 6 1,2
18.07.2019 05:00:00 16,3 14,3 - - 21 11 - - SSW 1007,8 21 0,0
18.07.2019 04:00:00 16,2 14,6 - - 16 9 - - SSW 1008,0 15 0,0
18.07.2019 03:00:00 16,8 15,3 - - 15 8 - - SSW 1008,7 18 0,0
18.07.2019 02:00:00 16,1 15,2 - - 11 6 - - S 1009,2 17 0,2
18.07.2019 01:00:00 15,7 14,7 - - 5 3 - - S 1009,8 3,3 0,0
18.07.2019 00:00:00 15,9 14,4 - - 5 3 - - WNW 1010,1 18 0,0
17.07.2019 23:00:00 17,2 14,0 - - 16 9 - - WNW 1010,4 23 0,0
17.07.2019 22:00:00 18,8 15,5 - - 8 4 - - SSW 1009,9 12 0,0
17.07.2019 21:00:00 20,0 14,9 - - 8 4 - - W 1009,9 9 0,0
17.07.2019 20:00:00 21,0 14,7 - - 9 5 - - W 1010,0 11 0,0
17.07.2019 19:00:00 22,4 14,3 - - 13 7 - - W 1010,3 9 0,0
17.07.2019 18:00:00 23,0 14,7 - - 13 7 - - W 1010,6 5 0,0
17.07.2019 17:00:00 23,0 14,2 - - 13 7 - - W 1010,9 7 0,0
17.07.2019 16:00:00 23,5 14,2 - - 16 9 - - WSW 1011,4 6 0,0
17.07.2019 15:00:00 23,9 14,3 - - 22 12 - - SSW 1011,7 2,0 0,0
17.07.2019 14:00:00 24,0 15,3 - - 21 11 - - S 1012,2 18 0,0
17.07.2019 13:00:00 24,0 16,4 - - 18 10 - - S 1012,9 16 0,0
17.07.2019 12:00:00 23,6 17,2 - - 16 9 - - S 1013,4 13 0,0
17.07.2019 11:00:00 21,9 16,3 - - 15 8 - - S 1013,8 17 0,0
17.07.2019 10:00:00 20,5 16,5 18,0 15,9 13 7 - - S 1014,2 14 0,0
17.07.2019 09:00:00 18,9 15,9 - - 11 6 - - S 1014,6 12 0,0

tt = temperature
td = dewpoint
tt -20cm = temperature -20cm
tt -100cm = temperature -100cm
ff = wind speed
fx = gusts
dd = wind direction
ppp = reduced air pressure
vv = visibility
rr = precipitation

Next stations